FW0527 Weather Reports


Display with metric or nautical units.
time (UTC)temp
F
wind
direction
speed
MPH
gust
MPH
rain 1hr
in
rain 24hr
in
rain mn
in
humidity
%
barometer
mb
20260905224506 84 285 0.0 4.0 0.00 0.00 0.00 32 1012.4
20260905223005 85 312 2.0 8.0 0.00 0.00 0.00 31 1012.4
20260905221503 85 295 3.0 15.0 0.00 0.00 0.00 32 1012.4
20260905220002 84 211 5.0 14.0 0.00 0.00 0.00 33 1012.7
20260905214501 83 311 1.0 11.0 0.00 0.00 0.00 33 1012.7
20260905213104 83 289 0.0 8.0 0.00 0.00 0.00 33 1012.9
20260905211559 83 342 0.0 9.0 0.00 0.00 0.00 32 1013.1
20260905210107 83 261 0.0 11.0 0.00 0.00 0.00 31 1013.0
20260905204556 84 306 0.0 9.0 0.00 0.00 0.00 30 1013.1
20260905203058 85 291 0.0 6.0 0.00 0.00 0.00 29 1013.2
20260905201553 87 270 0.0 10.0 0.00 0.00 0.00 28 1013.3
20260905200107 87 198 0.0 4.0 0.00 0.00 0.00 28 1013.3
20260905194549 86 192 0.0 0.0 0.00 0.00 0.00 27 1013.3
20260905193046 85 282 3.0 13.0 0.00 0.00 0.00 26 1013.6
20260905191546 85 304 2.0 12.0 0.00 0.00 0.00 25 1013.9
20260905190051 86 321 3.0 12.0 0.00 0.00 0.00 24 1013.9
20260905184541 85 309 0.0 0.0 0.00 0.00 0.00 29 1013.9
20260905183038 84 220 0.0 7.0 0.00 0.00 0.00 31 1014.1
20260905181536 84 238 0.0 2.0 0.00 0.00 0.00 33 1014.1
20260905180047 83 271 0.0 4.0 0.00 0.00 0.00 33 1014.2
20260905174529 82 234 0.0 3.0 0.00 0.00 0.00 32 1014.1
20260905173027 81 318 1.0 5.0 0.00 0.00 0.00 33 1014.1
20260905171530 80 230 0.0 7.0 0.00 0.00 0.00 32 1013.8
20260905170024 80 239 0.0 4.0 0.00 0.00 0.00 34 1013.7
20260905164523 80 247 0.0 7.0 0.00 0.00 0.00 32 1013.6
20260905163019 79 228 0.0 6.0 0.00 0.00 0.00 31 1013.6
20260905161523 76 166 0.0 2.0 0.00 0.00 0.00 30 1013.6
20260905160010 73 158 0.0 0.0 0.00 0.00 0.00 31 1013.6
20260905154506 68 150 0.0 3.0 0.00 0.00 0.00 36 1013.7
20260905153002 65 160 0.0 0.0 0.00 0.00 0.00 41 1013.8
20260905151558 62 144 0.0 0.0 0.00 0.00 0.00 44 1013.9
20260905150053 60 163 0.0 0.0 0.00 0.00 0.00 46 1013.6
20260905144549 58 161 0.0 0.0 0.00 0.00 0.00 47 1013.5
20260905143047 58 163 0.0 0.0 0.00 0.00 0.00 44 1013.4
20260905141546 58 163 0.0 0.0 0.00 0.00 0.00 43 1013.2
20260905140047 58 163 0.0 0.0 0.00 0.00 0.00 41 1012.9
20260905134552 57 163 0.0 0.0 0.00 0.00 0.00 40 1012.7
20260905133048 57 163 0.0 0.0 0.00 0.00 0.00 41 1012.5
20260905131544 57 163 0.0 0.0 0.00 0.00 0.00 41 1012.5
20260905130041 57 163 0.0 0.0 0.00 0.00 0.00 41 1012.4
20260905124544 57 163 0.0 0.0 0.00 0.00 0.00 42 1012.3
20260905123041 57 163 0.0 0.0 0.00 0.00 0.00 40 1012.3
20260905121544 57 163 0.0 0.0 0.00 0.00 0.00 39 1012.3
20260905120052 57 163 0.0 0.0 0.00 0.00 0.00 39 1012.4
20260905114550 58 163 0.0 0.0 0.00 0.00 0.00 40 1012.3
20260905113046 58 163 0.0 0.0 0.00 0.00 0.00 41 1012.5
20260905111609 58 163 0.0 0.0 0.00 0.00 0.00 42 1012.4
20260905110033 57 163 0.0 0.0 0.00 0.00 0.00 42 1012.8
20260905104531 57 163 0.0 0.0 0.00 0.00 0.00 42 1012.8
20260905103035 56 163 0.0 0.0 0.00 0.00 0.00 39 1012.9
20260905101529 56 163 0.0 0.0 0.00 0.00 0.00 36 1012.8
20260905100027 56 163 0.0 1.0 0.00 0.00 0.00 35 1012.9
20260905094526 56 163 0.0 3.0 0.00 0.00 0.00 35 1013.1
20260905093024 55 170 0.0 0.0 0.00 0.00 0.00 37 1013.1
20260905091520 55 96 0.0 0.0 0.00 0.00 0.00 38 1013.0
20260905090018 54 95 0.0 0.0 0.00 0.00 0.00 40 1013.1
20260905084517 54 94 0.0 0.0 0.00 0.00 0.00 41 1013.3
20260905083015 54 94 0.0 0.0 0.00 0.00 0.00 42 1013.4
20260905081512 54 94 0.0 0.0 0.00 0.00 0.00 45 1013.4
20260905080011 54 94 0.0 0.0 0.00 0.00 0.00 47 1013.4
20260905074510 54 94 0.0 0.0 0.00 0.00 0.00 48 1013.6
20260905073008 54 94 0.0 0.0 0.00 0.00 0.00 49 1013.6
20260905071505 54 94 0.0 0.0 0.00 0.00 0.00 48 1013.3
20260905070007 54 94 0.0 0.0 0.00 0.00 0.00 47 1013.4
20260905064510 55 94 0.0 0.0 0.00 0.00 0.00 47 1013.0
20260905063003 55 94 0.0 0.0 0.00 0.00 0.00 49 1013.1
20260905061502 56 94 0.0 0.0 0.00 0.00 0.00 50 1013.0
20260905060001 56 94 0.0 0.0 0.00 0.00 0.00 52 1013.0
20260905054506 57 94 0.0 0.0 0.00 0.00 0.00 52 1012.9
20260905053001 57 94 0.0 0.0 0.00 0.00 0.00 53 1012.9
20260905051600 58 94 0.0 0.0 0.00 0.00 0.00 53 1012.9
20260905050101 59 94 0.0 0.0 0.00 0.00 0.00 55 1012.8
20260905044559 60 94 0.0 0.0 0.00 0.00 0.00 54 1012.6
20260905043105 60 94 0.0 0.0 0.00 0.00 0.00 50 1012.5
20260905041601 60 300 0.0 0.0 0.00 0.00 0.00 48 1012.7
20260905040057 61 302 0.0 0.0 0.00 0.00 0.00 50 1012.6
20260905034604 61 302 0.0 0.0 0.00 0.00 0.00 50 1012.4
20260905033057 62 302 0.0 0.0 0.00 0.00 0.00 50 1012.2
20260905031557 64 302 0.0 0.0 0.00 0.00 0.00 50 1012.1
20260905030115 66 302 0.0 0.0 0.00 0.00 0.00 48 1012.0
20260905024557 67 302 0.0 0.0 0.00 0.00 0.00 47 1012.0
20260905023155 68 302 0.0 0.0 0.00 0.00 0.00 46 1011.9
20260905021553 69 302 0.0 0.0 0.00 0.00 0.00 45 1011.7
20260905020053 70 302 0.0 2.0 0.00 0.00 0.00 44 1011.8
20260905014557 71 294 0.0 0.0 0.00 0.00 0.00 43 1011.7
20260905013054 72 300 0.0 1.0 0.00 0.00 0.00 43 1011.7
20260905011552 73 302 0.0 5.0 0.00 0.00 0.00 42 1011.7
20260905010051 73 296 0.0 8.0 0.00 0.00 0.00 41 1011.7
20260905004551 74 301 1.0 8.0 0.00 0.00 0.00 41 1011.7
20260905003050 75 296 0.0 3.0 0.00 0.00 0.00 40 1011.8
20260905001549 76 279 0.0 5.0 0.00 0.00 0.00 41 1011.7
20260905000049 76 315 2.0 12.0 0.00 0.00 0.00 41 1011.8
20260904234550 77 304 3.0 13.0 0.00 0.00 0.00 40 1011.8
20260904233046 78 313 1.0 14.0 0.00 0.00 0.00 39 1011.9
20260904231544 78 298 4.0 12.0 0.00 0.00 0.00 38 1011.8
20260904230043 79 306 4.0 12.0 0.00 0.00 0.00 37 1011.9